This demonstration page uses our WeatherBlox Daily Observations layout. Learn more.

38.89511, -77.03637

Hourly Observations for February 16, 2015

Temp ( °F °C ) Dew Point ( °F °C ) Humidity (%) Winds ( mph kmh ) Pressure ( in mb ) Visibility ( mi km ) Precip ( " mm )
12:52 am 00:52 Clear 12 -11 -9 -23 37 37 NW 15 24 30.36 1028 10 16.0934 0 0
1:52 am 01:52 Clear 11 -11.7 -11 -23.9 36 36 NW 12 19 30.35 1028 10 16.0934 0 0
2:52 am 02:52 Clear 11 -11.7 -10 -23.3 38 38 NW 13 20 30.36 1028 10 16.0934 0 0
3:52 am 03:52 Mostly Cloudy 10 -12.2 -11 -23.9 37 37 NW 16 26 30.35 1028 10 16.0934 0 0
4:52 am 04:52 Cloudy 11 -11.7 -11 -23.9 36 36 NNW 12 19 30.37 1028 10 16.0934 0 0
5:52 am 05:52 Cloudy 11 -11.7 -11 -23.9 36 36 NNW 14 22 30.38 1029 10 16.0934 0 0
6:52 am 06:52 Mostly Cloudy 10 -12.2 -11 -23.9 37 37 NNW 13 20 30.38 1029 10 16.0934 0 0
7:52 am 07:52 Cloudy 11 -11.7 -11 -23.9 36 36 NNW 13 20 30.38 1029 10 16.0934 0 0
8:52 am 08:52 Cloudy 13 -10.6 -9 -22.8 36 36 NW 6 9 30.41 1030 10 16.0934 0 0
9:52 am 09:52 Cloudy 14 -10 -9 -22.8 35 35 VRB 7 11 30.4 1029 10 16.0934 0 0
10:52 am 10:52 Cloudy 16 -8.9 -9 -22.8 32 32 N 7 11 30.37 1028 10 16.0934 0 0
11:52 am 11:52 Cloudy 17 -8.3 -8 -22.2 32 32 NNW 8 13 30.34 1027 10 16.0934 0 0
12:52 pm 12:52 Cloudy 19 -7.2 -7 -21.7 31 31 NW 5 7 30.3 1026 10 16.0934 0 0
1:52 pm 13:52 Cloudy 19 -7.2 -8 -22.2 29 29 W 6 9 30.29 1026 10 16.0934 0 0
2:21 pm 14:21 Cloudy 19 -7 -8 -22 29 29 VRB 6 9 30.27 1025 10 16.0934 0 0
2:52 pm 14:52 Cloudy 19 -7.2 -2 -18.9 39 39 W 7 11 30.27 1025 10 16.0934 0 0
2:54 pm 14:54 Cloudy with Light Snow 19 -7 0 -18 42 42 W 8 13 30.27 1025 7 11.26538 0 0.0254
3:05 pm 15:05 Cloudy with Light Snow 18 -8 1 -17 49 49 SW 6 9 30.27 1025 3 4.82802 0 0.0254
3:13 pm 15:13 Cloudy with Light Snow 18 -8 3 -16 53 53 SW 6 9 30.27 1025 1.75 2.816345 0 0.0254
3:16 pm 15:16 Cloudy with Light Snow 18 -8 3 -16 53 53 WSW 5 7 30.27 1025 2 3.21868 0 0
3:38 pm 15:38 Cloudy with Light Snow 18 -8 7 -14 62 62 SSW 5 7 30.24 1024 1.5 2.41401 0 0
3:52 pm 15:52 Cloudy with Light Snow 17 -8.3 7 -13.9 64 64 SW 5 7 30.25 1024 1.25 2.011675 0.01 0.254
4:25 pm 16:25 Mostly Cloudy with Scattered Snow Showers 18 -8 9 -13 68 68 S 5 7 30.24 1024 0.75 1.207005 0.01 0.254
4:40 pm 16:40 Mostly Cloudy with Scattered Snow Showers 18 -8 9 -13 68 68 SSW 5 7 30.24 1024 1 1.60934 0 0
4:52 pm 16:52 Cloudy with Light Snow 17 -8.3 8 -13.3 68 68 Calm 30.23 1024 1.25 2.011675 0.02 0.508
5:52 pm 17:52 Cloudy with Light Snow 17 -8.3 10 -12.2 74 74 S 5 7 30.2 1023 1 1.60934 0.02 0.508
5:59 pm 17:59 Cloudy with Light Snow 18 -8 10 -12 73 73 S 7 11 30.21 1023 1 1.60934 0 0.0254
6:23 pm 18:23 Mostly Cloudy with Scattered Snow Showers 16 -9 10 -12 79 79 SE 5 7 30.18 1022 1 1.60934 0.01 0.254
6:27 pm 18:27 Mostly Cloudy with Scattered Snow Showers 16 -9 10 -12 79 79 SE 3 6 30.18 1022 0.75 1.207005 0.01 0.254
6:35 pm 18:35 Mostly Cloudy with Scattered Snow Showers 16 -9 10 -12 79 79 SE 5 7 30.18 1022 1 1.60934 0.02 0.508
6:52 pm 18:52 Cloudy with Light Snow 16 -8.9 10 -12.2 77 77 E 3 6 30.16 1021 1.25 2.011675 0.03 0.762
7:52 pm 19:52 Mostly Cloudy with Scattered Snow Showers 16 -8.9 11 -11.7 80 80 SSE 3 6 30.14 1021 1 1.60934 0.04 1.016
8:33 pm 20:33 Mostly Cloudy with Scattered Snow Showers 16 -9 10 -12 79 79 S 5 7 30.15 1021 0.75 1.207005 0.04 1.016
8:42 pm 20:42 Mostly Cloudy with Scattered Snow Showers 16 -9 10 -12 79 79 S 7 11 30.15 1021 1 1.60934 0 0
8:52 pm 20:52 Cloudy with Light Snow 16 -8.9 11 -11.7 80 80 SSE 6 9 30.14 1021 1.5 2.41401 0.06 1.524
9:52 pm 21:52 Mostly Cloudy with Scattered Snow Showers 16 -8.9 10 -12.2 77 77 SSE 3 6 30.12 1020 1 1.60934 0.04 1.016
9:56 pm 21:56 Mostly Cloudy with Scattered Snow Showers 16 -9 10 -12 79 79 S 5 7 30.12 1020 0.75 1.207005 0 0.0254
10:12 pm 22:12 Mostly Cloudy with Scattered Snow Showers 16 -9 10 -12 79 79 SSE 3 6 30.12 1020 0.75 1.207005 0 0
10:17 pm 22:17 Mostly Cloudy with Scattered Snow Showers 16 -9 10 -12 79 79 Calm 30.12 1020 0.75 1.207005 0.03 0.762
10:25 pm 22:25 Cloudy with Light Snow 16 -9 10 -12 79 79 S 3 6 30.12 1020 1 1.60934 0.04 1.016
10:33 pm 22:33 Cloudy with Light Snow 16 -9 10 -12 79 79 Calm 30.12 1020 2.5 4.02335 0.04 1.016
10:35 pm 22:35 Cloudy with Light Snow 16 -9 10 -12 79 79 Calm 30.12 1020 3 4.82802 0.04 1.016
10:52 pm 22:52 Cloudy with Light Snow 17 -8.3 10 -12.2 74 74 Calm 30.09 1019 7 11.26538 0.04 1.016
11:18 pm 23:18 Cloudy with Light Snow 18 -8 10 -12 73 73 Calm 30.06 1018 3 4.82802 0.01 0.254
11:20 pm 23:20 Cloudy with Light Snow 18 -8 10 -12 73 73 ESE 3 6 30.06 1018 2.5 4.02335 0 0
11:26 pm 23:26 Cloudy with Light Snow 18 -8 10 -12 73 73 Calm 30.09 1019 1.75 2.816345 0 0
11:46 pm 23:46 Mostly Cloudy with Scattered Snow Showers 18 -8 10 -12 73 73 Calm 30.06 1018 0.75 1.207005 0 0
11:52 pm 23:52 Mostly Cloudy with Scattered Snow Showers 17 -8.3 11 -11.7 77 77 E 3 6 30.05 1018 0.75 1.207005 0.03 0.762
11:57 pm 23:57 Mostly Cloudy with Scattered Snow Showers 18 -8 10 -12 73 73 Calm 30.06 1018 1 1.60934 0 0.0254

Powered by AerisWeather